Simultaneous Nadir Overpasses (SNOs) Predictions

Prediction of SNOs between GOES-14 and NPP Satellite Orbit:

Table of predicted SNOs for the next 14.0 days since TLE Epoch: 9/9/2023
Index Date Time (GOES-14) GOES-14 Lat,Lon NPP Lat,Lon Distance(km) Time Diff (sec)
1 09/09/2023 08:25:14 0.40,-108.60 -0.38,-105.19 389.82 80
2 09/10/2023 20:47:08 -0.38,-108.52 -0.85,-110.48 223.96 80
3 09/11/2023 20:31:03 -0.39,-108.52 0.16,-105.95 292.73 80
4 09/13/2023 08:50:10 0.37,-108.60 0.95,-111.23 299.36 80
5 09/14/2023 08:34:04 0.38,-108.60 -0.06,-106.70 217.27 80
6 09/15/2023 20:53:19 -0.36,-108.52 -1.16,-111.99 396.55 80
7 09/16/2023 20:37:13 -0.37,-108.52 -0.14,-107.46 120.41 80
8 09/18/2023 08:56:21 0.35,-108.60 1.25,-112.74 471.18 80
9 09/19/2023 08:40:14 0.36,-108.60 0.28,-108.20 45.39 80
10 09/21/2023 20:40:43 -0.34,-108.50 -0.46,-108.96 53.12 80
11 09/22/2023 20:24:37 -0.35,-108.49 0.57,-104.43 463.12 80
